Regional Weather Roundup
Issued by NWS

Home | Current Version | Previous Version | Graphics & Text | Print | Product List | Glossary On
Versions: 1 2 3 4 5 6 7 8 9 10 11 12 13 14 15 16 17 18 19 20 21 22 23 24 25 26 27 28 29 30 31 32 33 34 35 36 37 38 39 40 41 42 43 44 45 46 47 48 49 50
000
ASUS43 KDMX 190107
RWRIA

WEATHER ROUNDUP FOR IOWA
NATIONAL WEATHER SERVICE DES MOINES IA
800 PM CDT THU SEP 18 2014

NOTE: "FAIR" INDICATES FEW OR NO CLOUDS BELOW 12,000 FEET WITH NO
SIGNIFICANT WEATHER AND/OR OBSTRUCTIONS TO VISIBILITY.

* - THESE STATIONS ARE NOT NWS STATIONS...THUS NOT UNDER NWS
QUALITY CONTROL.  THEY ALSO DO NOT REPORT WEATHER SUCH
AS PRECIPITATION OR FOG.

IAZ001>003-012>014-020>022-031>034-043>046-190200-
   NORTHWEST IOWA

CITY           SKY/WX    TMP DP  RH WIND       PRES   REMARKS
CARROLL *      CLEAR     59  54  82 SE6       30.00S
CHEROKEE *     CLEAR     63  59  88 SE5       29.97S
DENISON *      CLEAR     64  57  77 SE7       29.97S
LE MARS *        N/A     66  57  72 SE9       29.94F
ORANGE CITY *  CLEAR     66  55  68 SE6       29.95F
SHELDON *      CLEAR     63  57  82 SE8       29.95S
SIOUX CITY     CLEAR     68  56  65 SE8       29.94S
SPENCER        CLEAR     63  52  67 SE9       29.98S
STORM LAKE *   CLEAR     61  59  94 SE9       29.99S
$$

IAZ055>058-069>071-079>083-090>094-190200-
   SOUTHWEST IOWA

CITY           SKY/WX    TMP DP  RH WIND       PRES   REMARKS
ATLANTIC *     CLEAR     64  54  68 SE6       29.99S HAZE
AUDUBON *      CLEAR     61  52  72 CALM      30.01S
CLARINDA *     CLEAR     64  59  82 SE5G12    30.01S
COUNCIL BLFS * CLEAR     63  59  88 SE6       29.97S
CRESTON *      PTCLDY    59  57  94 SE7       30.03S
HARLAN  *      CLEAR     63  54  72 SE8       30.02S
LAMONI         CLEAR     63  58  83 SE3       30.03R
SHENANDOAH *     N/A     63  59  88 SE6       29.99S
$$

IAZ047>049-059>061-072>074-084-190200-
   CENTRAL IOWA

CITY           SKY/WX    TMP DP  RH WIND       PRES   REMARKS
AMES           CLEAR     59  51  75 S6        30.03R
ANKENY *       CLEAR     57  54  88 CALM      30.02S
CHARITON *     PTCLDY    61  57  88 SE3       30.03S
DES MOINES     CLEAR     66  54  65 SE6       30.02S
GRINNELL*      CLEAR     61  54  77 SE5       30.04S
KNOXVILLE *    CLEAR     64  55  72 SE7       30.02S
MARSHALLTOWN   CLEAR     61  53  75 SE3       30.03R
PELLA *        CLEAR     61  54  77 SE3       30.04S
PERRY *          N/A     61  54  77 SE5       30.02R
$$

IAZ004>006-015-016-023>025-035-036-190200-
   NORTH CENTRAL IOWA

CITY           SKY/WX    TMP DP  RH WIND       PRES   REMARKS
ALGONA *       CLEAR     63  52  67 S8        30.01S
CLARION *        N/A     63  54  72 SE8       30.02S
ESTHERVILLE    CLEAR     58  49  72 SE9       29.98F
FORT DODGE *   CLEAR     63  50  63 SE5       30.02S
MASON CITY     CLEAR     61  53  75 SE7       30.04S
FOREST CITY *  CLEAR     59  54  82 SE7       30.02R
IOWA FALLS *     N/A     61  54  77 E5        30.04R
$$

IAZ007>011-017>019-026>030-037>042-050>054-066-190200-
   NORTHEAST IOWA

CITY           SKY/WX    TMP DP  RH WIND       PRES   REMARKS
CEDAR RAPIDS   CLEAR     60  54  80 E6        30.05S
CHARLES CITY * CLEAR     61  54  77 SE6       30.05S
CLINTON *      CLEAR     57  52  82 E7        30.11R
DECORAH *      PTCLDY    61  55  82 SE7       30.06R
DUBUQUE        CLEAR     59  53  80 E7        30.09S
MONTICELLO *   CLEAR     61  54  77 E6        30.07R
OELWEIN *      CLEAR     59  54  82 SE7       30.07R
WATERLOO       CLEAR     64  53  67 SE6       30.04R
$$

IAZ064-065-067-068-078-190200-
   EAST CENTRAL IOWA

CITY           SKY/WX    TMP DP  RH WIND       PRES   REMARKS
DAVENPORT      CLEAR     61  50  67 E6        30.08S
IOWA CITY      CLEAR     66  53  63 E6        30.06S
MT. PLEASANT * CLEAR     61  52  72 E6        30.05S
MUSCATINE *    CLEAR     66  54  63 E7        30.06R
QUAD CITIES    CLEAR     61  52  72 E6        30.07R
$$

IAZ062-063-075>077-085>089-095>099-190200-
   SOUTHEAST IOWA

CITY           SKY/WX    TMP DP  RH WIND       PRES   REMARKS
BURLINGTON     CLEAR     66  53  63 E6        30.05S
FAIRFIELD *    CLEAR     59  54  82 CALM      30.05R
FORT MADISON * CLEAR     63  55  77 CALM      30.06S
KEOKUK *       CLEAR     61  57  88 E3        30.04R
OSKALOOSA *      N/A     63  54  72 SE5       30.05R
CENTERVILLE *  CLEAR     55  55 100 E3        30.05S
OTTUMWA        CLEAR     59  53  80 E6        30.04R
WASHINGTON *   PTCLDY    61  55  82 E7        30.05R
$$

ABBREVIATIONS USED IN REMARKS
   TC - TEMPERATURES IN CELSIUS
  WCI - WIND CHILL INDEX
   HX - HEAT INDEX
  VSB - VISIBILITY
$$




USA.gov is the U.S. government's official web portal to all federal, state and local government web resources and services.